DLH4Y EBBR-EDDF

Flight info

Callsign DLH4Y
Flight time 0h 38m
Altitude 23000
Route SPI T180 NIVNU T847 IMCOM IMCOM1A
Aircraft A320/M-SDE2E3FGIJ1LORWXYZ/HB1

Departure

Time 2026-05-05 14:28
Airport Brussels Airport (EBBR)

Arrival

Time 2026-05-05 15:06
Airport Frankfurt Main Airport (EDDF)
Time Latitude Longitude Altitude Speed Heading
2026-05-05 14:02 50.90467 4.48786 134 ft 0 kts 155°
2026-05-05 14:17 50.90468 4.48785 133 ft 2 kts 155°
2026-05-05 14:17 50.90490 4.48769 133 ft 4 kts 155°
2026-05-05 14:17 50.90509 4.48755 133 ft 4 kts 153°
2026-05-05 14:18 50.90531 4.48735 132 ft 4 kts 142°
2026-05-05 14:18 50.90550 4.48708 132 ft 4 kts 131°
2026-05-05 14:18 50.90557 4.48696 132 ft 1 kts 130°
2026-05-05 14:20 50.90549 4.48722 132 ft 7 kts 102°
2026-05-05 14:20 50.90580 4.48847 128 ft 14 kts 65°
2026-05-05 14:21 50.90624 4.48999 127 ft 17 kts 65°
2026-05-05 14:21 50.90624 4.49149 127 ft 13 kts 156°
2026-05-05 14:21 50.90557 4.49201 131 ft 9 kts 154°
2026-05-05 14:21 50.90509 4.49237 133 ft 8 kts 155°
2026-05-05 14:22 50.90451 4.49279 135 ft 13 kts 155°
2026-05-05 14:22 50.90340 4.49372 137 ft 17 kts 144°
2026-05-05 14:22 50.90237 4.49387 139 ft 14 kts 195°
2026-05-05 14:22 50.90148 4.49349 140 ft 12 kts 195°
2026-05-05 14:23 50.90051 4.49311 143 ft 19 kts 193°
2026-05-05 14:23 50.89931 4.49307 144 ft 16 kts 154°
2026-05-05 14:23 50.89828 4.49336 144 ft 15 kts 192°
2026-05-05 14:23 50.89729 4.49297 144 ft 17 kts 194°
2026-05-05 14:24 50.89604 4.49223 143 ft 19 kts 214°
2026-05-05 14:24 50.89489 4.49157 143 ft 17 kts 194°
2026-05-05 14:24 50.89369 4.49109 141 ft 18 kts 195°
2026-05-05 14:24 50.89250 4.49060 140 ft 18 kts 194°
2026-05-05 14:25 50.89133 4.49012 140 ft 16 kts 195°
2026-05-05 14:25 50.89042 4.48976 145 ft 11 kts 194°
2026-05-05 14:25 50.88960 4.48943 148 ft 13 kts 194°
2026-05-05 14:25 50.88879 4.48909 154 ft 18 kts 194°
2026-05-05 14:26 50.88761 4.48916 160 ft 15 kts 136°
2026-05-05 14:26 50.88731 4.49075 157 ft 17 kts 98°
2026-05-05 14:26 50.88786 4.49181 155 ft 0 kts 14°
2026-05-05 14:27 50.88808 4.49190 154 ft 15 kts 14°
2026-05-05 14:27 50.89152 4.49330 142 ft 88 kts 14°
2026-05-05 14:27 50.89940 4.49654 139 ft 143 kts 15°
2026-05-05 14:27 50.90934 4.50088 710 ft 149 kts 16°
2026-05-05 14:28 50.91896 4.50681 1472 ft 150 kts 36°
2026-05-05 14:28 50.92509 4.52114 1861 ft 174 kts 75°
2026-05-05 14:28 50.92323 4.54135 2185 ft 206 kts 114°
2026-05-05 14:28 50.91533 4.56219 2569 ft 233 kts 118°
2026-05-05 14:29 50.90615 4.58502 3123 ft 256 kts 119°
2026-05-05 14:29 50.89588 4.60868 3982 ft 266 kts 129°
2026-05-05 14:29 50.87993 4.62393 4937 ft 275 kts 165°
2026-05-05 14:29 50.86120 4.62832 5962 ft 276 kts 172°
2026-05-05 14:30 50.84204 4.63087 6960 ft 277 kts 174°
2026-05-05 14:30 50.82307 4.63680 7855 ft 280 kts 158°
2026-05-05 14:30 50.80642 4.65272 8736 ft 282 kts 136°
2026-05-05 14:30 50.79452 4.67743 9646 ft 284 kts 115°
2026-05-05 14:31 50.78782 4.70725 10256 ft 298 kts 106°
2026-05-05 14:31 50.78153 4.73975 10544 ft 321 kts 106°
2026-05-05 14:31 50.77420 4.77420 10985 ft 336 kts 112°
2026-05-05 14:31 50.76425 4.80803 11709 ft 342 kts 115°
2026-05-05 14:32 50.75380 4.84291 11985 ft 363 kts 115°
2026-05-05 14:32 50.74263 4.87999 12118 ft 384 kts 115°
2026-05-05 14:32 50.73088 4.91882 12463 ft 397 kts 115°
2026-05-05 14:32 50.71902 4.95791 13054 ft 401 kts 115°
2026-05-05 14:33 50.70689 4.99783 13660 ft 405 kts 115°
2026-05-05 14:33 50.69465 5.03809 14181 ft 410 kts 116°
2026-05-05 14:33 50.68225 5.07878 14721 ft 412 kts 116°
2026-05-05 14:33 50.66978 5.11965 15264 ft 415 kts 116°
2026-05-05 14:34 50.65723 5.16086 15775 ft 419 kts 117°
2026-05-05 14:34 50.64452 5.20246 16221 ft 424 kts 117°
2026-05-05 14:34 50.63167 5.24440 16744 ft 427 kts 117°
2026-05-05 14:34 50.61869 5.28677 17310 ft 430 kts 117°
2026-05-05 14:35 50.60558 5.32955 17821 ft 433 kts 117°
2026-05-05 14:35 50.59261 5.37184 18278 ft 436 kts 117°
2026-05-05 14:35 50.57936 5.41494 18701 ft 439 kts 117°
2026-05-05 14:35 50.56598 5.45833 19093 ft 441 kts 118°
2026-05-05 14:36 50.55252 5.50186 19498 ft 443 kts 118°
2026-05-05 14:36 50.53893 5.54569 19903 ft 446 kts 118°
2026-05-05 14:36 50.52527 5.58957 20272 ft 448 kts 118°
2026-05-05 14:36 50.51285 5.63452 20684 ft 452 kts 110°
2026-05-05 14:37 50.50384 5.68207 21041 ft 455 kts 108°
2026-05-05 14:37 50.49490 5.73002 21395 ft 457 kts 109°
2026-05-05 14:37 50.48591 5.77799 21736 ft 459 kts 109°
2026-05-05 14:37 50.47686 5.82619 22083 ft 461 kts 109°
2026-05-05 14:38 50.46776 5.87465 22412 ft 463 kts 109°
2026-05-05 14:38 50.45874 5.92265 22728 ft 465 kts 109°
2026-05-05 14:38 50.44955 5.97138 22859 ft 466 kts 109°
2026-05-05 14:38 50.44029 6.02017 22858 ft 466 kts 109°
2026-05-05 14:39 50.43101 6.06886 22859 ft 465 kts 109°
2026-05-05 14:39 50.42175 6.11737 22851 ft 464 kts 109°
2026-05-05 14:39 50.41248 6.16588 22852 ft 464 kts 109°
2026-05-05 14:39 50.40328 6.21403 22852 ft 464 kts 109°
2026-05-05 14:40 50.39401 6.26250 22852 ft 464 kts 109°
2026-05-05 14:40 50.38467 6.31104 22837 ft 464 kts 109°
2026-05-05 14:40 50.37531 6.35963 22838 ft 464 kts 109°
2026-05-05 14:40 50.36629 6.40817 22837 ft 465 kts 105°
2026-05-05 14:41 50.36151 6.45838 22836 ft 467 kts 97°
2026-05-05 14:41 50.35849 6.50903 22823 ft 467 kts 97°
2026-05-05 14:41 50.35536 6.55980 22835 ft 467 kts 97°
2026-05-05 14:41 50.35219 6.60984 22839 ft 467 kts 98°
2026-05-05 14:42 50.34889 6.66053 22841 ft 466 kts 98°
2026-05-05 14:42 50.34187 6.70980 22839 ft 462 kts 112°
2026-05-05 14:42 50.32961 6.75623 22836 ft 460 kts 115°
2026-05-05 14:42 50.31702 6.80233 22834 ft 460 kts 115°
2026-05-05 14:43 50.30430 6.84837 22830 ft 460 kts 115°
2026-05-05 14:43 50.29155 6.89427 22831 ft 460 kts 115°
2026-05-05 14:43 50.27889 6.93976 22819 ft 461 kts 115°
2026-05-05 14:43 50.26603 6.98600 22822 ft 461 kts 115°
2026-05-05 14:44 50.25329 7.03188 22816 ft 458 kts 115°
2026-05-05 14:44 50.24086 7.07666 22587 ft 440 kts 115°
2026-05-05 14:44 50.22887 7.11988 22316 ft 426 kts 115°
2026-05-05 14:44 50.21720 7.16181 21821 ft 417 kts 115°
2026-05-05 14:45 50.20565 7.20309 21261 ft 410 kts 115°
2026-05-05 14:45 50.19441 7.24310 20748 ft 403 kts 115°
2026-05-05 14:45 50.18322 7.28291 20250 ft 397 kts 115°
2026-05-05 14:45 50.17217 7.32209 19751 ft 391 kts 115°
2026-05-05 14:46 50.16125 7.36081 19264 ft 386 kts 115°
2026-05-05 14:46 50.15051 7.39883 18792 ft 381 kts 115°
2026-05-05 14:46 50.13989 7.43644 18320 ft 377 kts 115°
2026-05-05 14:46 50.12934 7.47374 17789 ft 374 kts 115°
2026-05-05 14:47 50.11890 7.51060 17278 ft 370 kts 115°
2026-05-05 14:47 50.10855 7.54710 16782 ft 366 kts 115°
2026-05-05 14:47 50.09838 7.58283 16264 ft 363 kts 115°
2026-05-05 14:47 50.08814 7.61869 15781 ft 360 kts 115°
2026-05-05 14:48 50.07794 7.65428 15258 ft 358 kts 115°
2026-05-05 14:48 50.06775 7.68977 14758 ft 360 kts 116°
2026-05-05 14:48 50.05751 7.72550 14230 ft 361 kts 115°
2026-05-05 14:48 50.04730 7.76119 13709 ft 359 kts 116°
2026-05-05 14:49 50.03727 7.79623 13148 ft 358 kts 115°
2026-05-05 14:49 50.02713 7.83153 12630 ft 356 kts 115°
2026-05-05 14:49 50.01702 7.86671 12078 ft 355 kts 116°
2026-05-05 14:49 50.00748 7.90199 11540 ft 354 kts 109°
2026-05-05 14:50 50.00241 7.93946 10985 ft 354 kts 96°
2026-05-05 14:50 50.00310 7.97749 10630 ft 350 kts 82°
2026-05-05 14:50 50.00920 8.01416 10559 ft 351 kts 71°
2026-05-05 14:50 50.01494 8.03770 10509 ft 351 kts 71°
2026-05-05 14:51 50.02645 8.08487 10405 ft 351 kts 71°
2026-05-05 14:51 50.03510 8.12033 10342 ft 350 kts 71°
2026-05-05 14:51 50.04366 8.15548 10268 ft 340 kts 71°
2026-05-05 14:51 50.05188 8.18923 10193 ft 325 kts 71°
2026-05-05 14:52 50.05708 8.21067 10146 ft 316 kts 71°
2026-05-05 14:52 50.06469 8.24217 10030 ft 304 kts 71°
2026-05-05 14:52 50.07205 8.27265 9830 ft 297 kts 71°
2026-05-05 14:52 50.07925 8.30257 9602 ft 294 kts 71°
2026-05-05 14:53 50.08640 8.33230 9347 ft 292 kts 71°
2026-05-05 14:53 50.09347 8.36161 9128 ft 292 kts 71°
2026-05-05 14:53 50.10058 8.39108 8885 ft 290 kts 71°
2026-05-05 14:53 50.10766 8.42055 8641 ft 289 kts 71°
2026-05-05 14:54 50.11472 8.44989 8398 ft 289 kts 71°
2026-05-05 14:54 50.12172 8.47908 8227 ft 287 kts 71°
2026-05-05 14:54 50.12869 8.50826 8094 ft 287 kts 71°
2026-05-05 14:54 50.13564 8.53738 7972 ft 286 kts 71°
2026-05-05 14:55 50.14259 8.56651 7847 ft 286 kts 71°
2026-05-05 14:55 50.14949 8.59557 7721 ft 286 kts 71°
2026-05-05 14:55 50.15628 8.62422 7606 ft 285 kts 71°
2026-05-05 14:55 50.16316 8.65317 7458 ft 284 kts 71°
2026-05-05 14:56 50.17005 8.68215 7346 ft 285 kts 71°
2026-05-05 14:56 50.17693 8.71104 7216 ft 283 kts 71°
2026-05-05 14:56 50.18379 8.73983 7072 ft 283 kts 71°
2026-05-05 14:56 50.19062 8.76860 6902 ft 283 kts 71°
2026-05-05 14:57 50.19736 8.79700 6728 ft 274 kts 71°
2026-05-05 14:57 50.20386 8.82453 6554 ft 267 kts 71°
2026-05-05 14:57 50.21022 8.85152 6385 ft 262 kts 71°
2026-05-05 14:57 50.21645 8.87800 6209 ft 259 kts 72°
2026-05-05 14:58 50.22263 8.90434 6025 ft 257 kts 72°
2026-05-05 14:58 50.22869 8.93028 5845 ft 257 kts 72°
2026-05-05 14:58 50.23479 8.95648 5668 ft 257 kts 72°
2026-05-05 14:58 50.23801 8.98351 5485 ft 252 kts 95°
2026-05-05 14:59 50.23390 9.00976 5306 ft 247 kts 119°
2026-05-05 14:59 50.22348 9.03019 5135 ft 237 kts 143°
2026-05-05 14:59 50.20922 9.04178 5025 ft 230 kts 166°
2026-05-05 14:59 50.19355 9.04370 4990 ft 227 kts 188°
2026-05-05 15:00 50.17855 9.03592 4996 ft 229 kts 210°
2026-05-05 15:00 50.17015 9.02591 4999 ft 230 kts 225°
2026-05-05 15:00 50.15879 8.99792 5010 ft 231 kts 240°
2026-05-05 15:00 50.15117 8.97586 5008 ft 232 kts 243°
2026-05-05 15:01 50.14490 8.95266 5008 ft 232 kts 248°
2026-05-05 15:01 50.13931 8.92905 5007 ft 231 kts 249°
2026-05-05 15:01 50.13382 8.90548 5002 ft 232 kts 249°
2026-05-05 15:01 50.12827 8.88178 5005 ft 232 kts 249°
2026-05-05 15:02 50.12279 8.85848 4928 ft 233 kts 249°
2026-05-05 15:02 50.11719 8.83469 4654 ft 232 kts 248°
2026-05-05 15:02 50.11163 8.81111 4334 ft 231 kts 248°
2026-05-05 15:02 50.10609 8.78760 3998 ft 231 kts 248°
2026-05-05 15:03 50.10055 8.76416 3663 ft 230 kts 248°
2026-05-05 15:03 50.09500 8.74070 3344 ft 229 kts 248°
2026-05-05 15:03 50.08954 8.71760 3022 ft 226 kts 249°
2026-05-05 15:03 50.08410 8.69461 2714 ft 227 kts 250°
2026-05-05 15:04 50.07854 8.67110 2370 ft 232 kts 249°
2026-05-05 15:04 50.07308 8.64817 2036 ft 218 kts 249°
2026-05-05 15:04 50.06803 8.62694 1740 ft 201 kts 249°
2026-05-05 15:04 50.06334 8.60722 1479 ft 187 kts 248°
2026-05-05 15:05 50.05514 8.57281 987 ft 150 kts 249°
2026-05-05 15:05 50.05169 8.55827 735 ft 141 kts 248°
2026-05-05 15:05 50.04843 8.54463 579 ft 131 kts 249°
2026-05-05 15:06 50.04525 8.53127 372 ft 127 kts 247°
2026-05-05 15:06 50.04266 8.52049 336 ft 73 kts 249°
2026-05-05 15:06 50.04153 8.51625 333 ft 33 kts 236°
2026-05-05 15:06 50.04014 8.51418 330 ft 20 kts 219°
2026-05-05 15:07 50.03938 8.51361 334 ft 5 kts 160°
2026-05-05 15:07 50.03914 8.51391 334 ft 5 kts 128°
2026-05-05 15:07 50.03909 8.51440 331 ft 11 kts 85°
2026-05-05 15:07 50.03940 8.51589 333 ft 14 kts 70°
2026-05-05 15:08 50.03971 8.51717 333 ft 16 kts 69°
2026-05-05 15:08 50.04021 8.51927 335 ft 20 kts 70°
2026-05-05 15:08 50.04065 8.52110 341 ft 16 kts 69°
2026-05-05 15:08 50.04099 8.52251 351 ft 14 kts 69°
2026-05-05 15:09 50.04152 8.52468 352 ft 27 kts 70°
2026-05-05 15:09 50.04214 8.52733 354 ft 26 kts 70°
2026-05-05 15:09 50.04274 8.52984 361 ft 24 kts 69°
2026-05-05 15:09 50.04330 8.53217 364 ft 20 kts 69°
2026-05-05 15:10 50.04381 8.53422 372 ft 21 kts 68°
2026-05-05 15:10 50.04402 8.53620 375 ft 17 kts 84°
2026-05-05 15:10 50.04414 8.53797 375 ft 16 kts 84°
2026-05-05 15:10 50.04425 8.53957 375 ft 14 kts 84°
2026-05-05 15:11 50.04434 8.54103 375 ft 13 kts 84°
2026-05-05 15:11 50.04443 8.54239 375 ft 12 kts 84°
2026-05-05 15:11 50.04452 8.54374 373 ft 17 kts 84°
2026-05-05 15:11 50.04415 8.54629 365 ft 24 kts 118°
2026-05-05 15:12 50.04271 8.54796 357 ft 22 kts 161°
2026-05-05 15:12 50.04121 8.54880 356 ft 22 kts 159°
2026-05-05 15:12 50.04075 8.54907 351 ft 0 kts 159°
2026-05-05 15:13 50.04042 8.54929 356 ft 15 kts 150°
2026-05-05 15:13 50.04031 8.55067 360 ft 14 kts 70°
2026-05-05 15:14 50.04066 8.55212 355 ft 19 kts 69°
2026-05-05 15:14 50.04114 8.55412 360 ft 19 kts 71°
2026-05-05 15:14 50.04159 8.55603 359 ft 18 kts 69°
2026-05-05 15:14 50.04200 8.55774 360 ft 16 kts 69°
2026-05-05 15:15 50.04239 8.55925 356 ft 14 kts 56°
2026-05-05 15:15 50.04323 8.55941 361 ft 14 kts 339°
2026-05-05 15:15 50.04417 8.55910 357 ft 16 kts
2026-05-05 15:15 50.04524 8.55954 358 ft 15 kts 19°
2026-05-05 15:16 50.04581 8.56077 358 ft 14 kts 70°
2026-05-05 15:16 50.04614 8.56213 361 ft 13 kts 69°
2026-05-05 15:16 50.04651 8.56364 361 ft 15 kts 70°
2026-05-05 15:16 50.04686 8.56509 361 ft 14 kts 65°
2026-05-05 15:17 50.04737 8.56619 356 ft 9 kts 43°
2026-05-05 15:17 50.04785 8.56597 360 ft 7 kts 340°
2026-05-05 15:17 50.04809 8.56584 357 ft 0 kts 340°